www.pogodaiklimat.ru

Погода и климат >> Архив погоды >> Россия >> Костромская область >> Пыщуг


ПОГОДА в Пыщуге

  • Прогноз погоды в Пыщуге
  • Монитор погоды в Пыщуге
  • Климат города

АРХИВ ПОГОДЫ в Пыщуге

Время (UTC), дата Ветер
(напр.,м/с)
 
Видим.   Явления Облачность Т
(С)
Тd
(С)
f
(%)
Тe
(С)
Тes
(С)
Комфортность P
(гПа)
Po
(гПа)
Тmin
(С)
Tmax
(С)
R
(мм)
R24
(мм)
S
(см)
18 12.11 ЮЗ 2 20 км ясно -8.9 -12.8 73 -13 -13 1045.4 1024.4
21 12.11 Ю 2 20 км ясно -10.9 -12.2 90 -15 -15 1045.2 1024.0
00 13.11 ЮЗ 2 20 км ясно -10.6 -12.6 85 -15 -15 1044.1 1023.0
03 13.11 Ю 2 20 км ясно -10.9 -12.9 85 -15 -15 1042.6 1021.5 -11.4
06 13.11 ЮЗ 2 25 км ясно -10.7 -12.7 85 -15 -15 1041.3 1020.3
09 13.11 ЮЗ 2 27 км ясно -5.1 -12.5 56 -9 -8 1039.4 1018.9
12 13.11 ЮЗ 3 29 км 3/0
[Ci sp]
-3.5 -14.9 41 -8 -8 1037.2 1016.8
15 13.11 ЮЗ 3 20 км 4/0
[Ci sp]
-4.7 -16.6 39 -9 -9 1034.6 1014.2 -3.2
18 13.11 Ю 4-10
{10}
20 км 5/0
[Ci sp]
-4.9 -16.3 40 -11 -11 1032.0 1011.6
21 13.11 ЮЗ 6-12
{12}
20 км 10/10 600 м
[Sc]
-3.3 -15.8 37 -10 -10 1029.7 1009.4
00 14.11 ЮЗ 5-12
{12}
20 км 10/10 600 м
[Sc]
-2.7 -15.9 35 -8 -8 1027.9 1007.7
03 14.11 ЮЗ 5 20 км 10/10 600 м
[Sc]
-2.7 -15.9 35 -8 -8 1026.9 1006.8 -5.1
06 14.11 ЮЗ 5
{12}
25 км 10/4 600 м
[Sc Ac trans Ci sp]
-3.1 -14.7 40 -9 -9 1026.8 1006.7
09 14.11 ЮЗ 5 23 км 10/5 600 м
[Sc Ac trans Ci sp]
-1.6 -10.8 49 -7 -7 1026.9 1006.9
12 14.11 ЮЗ 3 22 км 10/3 600 м
[Sc Ac trans Ci sp]
-1.1 -9.0 55 -5 -5 1027.0 1007.0
15 14.11 Ю 3 20 км 8/3 600 м
[Sc Ac trans Ci sp]
-2.1 -7.1 69 -7 -7 1028.3 1008.1 -0.9
18 14.11 ЮЗ 2 20 км 9/4 600 м
[Sc Ac trans Ci sp]
-3.3 -8.0 70 -7 -7 1029.4 1009.2
21 14.11 ЮЗ 2 20 км 10/8 600 м
[Sc Ci sp]
-2.5 -7.7 67 -6 -6 1030.5 1010.3
00 15.11 ЮЗ 2 20 км 10/10 600 м
[Sc]
-2.3 -5.9 76 -6 -6 1031.4 1011.2
03 15.11 ЮЗ 2 20 км 10/10 600 м
[Sc]
-2.3 -5.2 80 -6 -6 1033.2 1012.9 -3.4
06 15.11 ЮЗ 3 23 км 10/10 600 м
[Sc]
-2.3 -5.5 79 -7 -7 1035.3 1015.0
09 15.11 Ю 3 21 км 10/10 600 м
[Cb cap]
-1.7 -4.8 79 -7 -7 1036.3 1016.1
12 15.11 ЮЗ 2 23 км 10/10 600 м
[Sc]
-1.7 -4.4 82 -6 -6 1037.9 1017.6
15 15.11 Ю 2 20 км 10/10 600 м
[Cb cap]
-1.5 -4.2 82 -5 -5 1039.0 1018.8 -1.2
18 15.11 ЮЗ 2 10 км слабый ливневой снег 10/10 600 м
[Cb cap]
-1.7 -3.1 90 -6 -6 1039.7 1019.4
21 15.11 ЮЗ 2 20 км {ливн. осадки} 10/10 600 м
[Cb cap]
-1.4 -4.4 80 -5 -5 1040.1 1019.8
00 16.11 ЮЗ 2 20 км {ливн. осадки} 10/10 600 м
[Sc]
-1.3 -6.8 66 -5 -5 1040.0 1019.7
03 16.11 ЮЗ 2 20 км 8/6 600 м
[Sc Ci sp]
-1.5 -8.3 60 -5 -5 1040.1 1019.8 -1.9 0.0
06 16.11 З 2 23 км 10/10 600 м
[Cb cap]
-1.5 -7.5 64 -5 -5 1040.1 1019.8 -2.6
09 16.11 ЮЗ 3 24 км 10/10 600 м
[Sc]
+0.1 -5.6 65 -4 -4 1039.1 1018.9
12 16.11 ЮЗ 4 24 км 10/0
[Ac trans Ci sp]
+0.3 -4.8 69 -5 -5 1037.5 1017.4
15 16.11 ЮЗ 3 20 км 10/0
[Ac und]
+0.2 -4.3 72 -4 -4 1036.7 1016.6 +0.4
18 16.11 ЮЗ 3 20 км {ливн. осадки} 10/8 600 м
[Cb cap Ac inh]
+0.7 -1.6 85 -4 -4 1035.7 1015.7
21 16.11 З 3 20 км 10/10 600 м
[Cb cap]
+1.1 -1.2 85 -3 -3 1034.1 1014.1
00 17.11 З 3 20 км 10/10 600 м
[Sc]
+1.1 -0.9 86 -3 -3 1032.3 1012.4
03 17.11 З 3 20 км 10/10 600 м
[Cb cap]
+1.1 +0.6 96 -4 -4 1030.2 1010.3 0.0 0.0
06 17.11 ЮЗ 2 18 км слабая морось 10/10 300 м
[St]
+0.7 +0.1 96 -3 -3 1027.2 1007.4
09 17.11 З 2 17 км слабая морось 10/10 300 м
[St]
+0.9 +0.6 98 -3 -3 1024.8 1005.0
12 17.11 ЮЗ 2 16 км слабая морось 10/10 300 м
[St]
+1.1 +0.8 98 -3 -3 1021.9 1002.2
15 17.11 ЮЗ 2 10 км слабая морось 10/10 300 м
[St]
+1.2 +0.9 98 -2 -2 1019.1 999.4 +1.5 0.6
18 17.11 ЮЗ 2 10 км слабый ливневой снег {морось} 10/10 600 м
[Cb cap]
+0.4 +0.4 100 -3 -3 1016.4 996.7
21 17.11 З 1 10 км слабый ливневой снег 10/10 600 м
[Cb cap]
+0.3 +0.3 100 -2 -2 1014.9 995.2
00 18.11 ЮЗ 1 10 км слабый ливневой снег 10/10 600 м
[Cb cap]
+0.3 +0.3 100 -2 -2 1014.1 994.4
03 18.11 З 1 4000 м дымка {ливн. осадки} 10/10 300 м
[St]
+0.7 +0.7 100 -2 -2 1014.2 994.6 -0.1 4 1
06 18.11 штиль 0 500 м туман {ливн. осадки} ?/? +0.6 +0.3 98 -1 -1 1015.7 996.1
09 18.11 С 1 2400 м в посл. час туман {ливн. осадки} 10/10 300 м
[Cb cap]
+1.3 +1.0 98 -1 -1 1017.4 997.7
12 18.11 С 1 12 км {ливн. осадки, туман} 10/10 300 м
[Cb cap]
+1.9 +1.6 98 -0 -0 1019.2 999.5
15 18.11 СЗ 2 10 км слабый ливневой снег 10/10 300 м
[Cb cap]
+0.7 +0.4 98 -3 -3 1020.7 1001.0 +1.9 4
18 18.11 СЗ 2 10 км слабый ливневой дождь 10/10 600 м
[Cb cap]
+1.0 +0.7 98 -3 -3 1021.6 1001.9
21 18.11 С 2 10 км слабый ливневой дождь 10/10 600 м
[Cb cap]
+1.3 +1.0 98 -2 -2 1023.1 1003.3
00 19.11 С 2 20 км {ливн. осадки} 10/10 600 м
[Cb cap]
+0.5 +0.2 98 -3 -3 1023.9 1004.4
03 19.11 СЗ 2 10 км слабый ливневой снег 10/10 600 м
[Cb cap]
-0.1 -0.7 96 -4 -4 1024.9 1005.0 -0.2 2 1
06 19.11 С 2 19 км слабый ливневой снег 10/8 600 м
[Cb cap Ac inh]
-1.3 -2.1 94 -5 -5 1026.7 1006.6 -1.5
09 19.11 С 3 20 км слабый ливневой снег 10/10 600 м
[Cb cap]
-1.1 -2.4 91 -6 -6 1028.6 1008.5
12 19.11 С 2 17 км слабый ливневой снег 10/10 600 м
[Cb cap]
-2.0 -3.2 91 -6 -6 1029.7 1009.5
15 19.11 С 3 20 км {ливн. осадки} 10/10 600 м
[Cb cap]
-2.9 -4.6 88 -8 -8 1030.6 1010.4 0.0 0.6

 

Местоположение метеостанции Пыщуг (Костромская область, Россия): широта 58.88 долгота 45.71 высота над уровнем моря 157 м.

В архиве по умолчанию представлена погода в Пыщуге за последнюю неделю. Архивные данные за месяц целиком и за предыдущие месяцы, начиная с января 2011 года, Вы можете получить, выбрав интересующий диапазон дат из раскрывающегося списка и нажав кнопку "Ввод!".


*Определитесь, кто Вы:
робот инопланетянин человек

Внимание! Время в таблицах - всемирное. Для получения местного времени необходимо прибавить поправку, которая в Пыщуге равна 3 ч.

Смотрите также архив погоды в соседних городах и на ближайших метеорологических станциях:

Погода в Шарье (Костромская область, Россия) (58 км)
Погода в Вохме (Костромская область, Россия) (61 км)
Погода в Никольске (Вологодская область, Россия) (74 км)
Погода в Кологриве (Костромская область, Россия) (80 км)
Погода в Мантурово (Костромская область, Россия) (82 км)
Погода в Шабалино (Кировская область, Россия) (104 км)
Погода в Ветлуге (Нижегородская область, Россия) (115 км)
Погода в Даровском (Кировская область, Россия) (131 км)
Погода в Шахунье (Нижегородская область, Россия) (146 км)
Погода в Николо-Поломе (Костромская область, Россия) (147 км)

Пояснения к столбцам:

Ветер - указаны скорость ветра в м/с - средняя за 10 мин, порывы в срок и между сроками (в фигурных скобках) и направление, откуда дует ветер: С - северный, СВ - северо-восточный, В - восточный, ЮВ - юго-восточный, Ю - южный, ЮЗ - юго-западный, З - западный, СЗ - северо-западный.
Видимость - горизонтальная дальность видимости в метрах или километрах. При видимости от 1 до 10 км при отсутствии осадков обычно наблюдается дымка, при ухудшении видимости до 1 км и менее - туман. В сухую погоду видимость может ухудшаться дымом, пылью или мглою.
Явления - указаны атмосферные явления, наблюдавшиеся в срок или в последний час перед сроком; фигурными скобками обозначены явления, наблюдавшиеся между сроками (за 1-3 часа до срока); квадратными скобками обозначены град или гололедные отложения с указанием их диаметра в мм.
Облачность - указаны через наклонную черту общая и нижняя облачность в баллах и высота нижней границы облаков в метрах; квадратными скобками обозначены формы облаков: Ci - перистые, Cs - перисто-слоистые, Cc - перисто-кучевые, Ac - высококучевые, As - высокослоистые, Sc - слоисто-кучевые, Ns - слоисто-дождевые, Cu - кучевые, Cb - кучево-дождевые. Подробнее классификацию облаков см. в Атласе облаков (PDF).
T - Температура воздуха - температура, измеренная на высоте 2 м над землей.
Td - Температура точки росы - температура, при понижении до которой содержащийся в воздухе водяной пар достигнет насыщения.
f - Относительная влажность воздуха - влажноcть воздуха, измеренная на высоте 2 м над землей.
Te - Эффективная температура - температура, которую ощущает одетый по сезону человек в тени. Характеристика душности погоды. При расчете учитывается влияние влажности воздуха и скорости ветра на теплоощущения человека.
Tes - Эффективная температура на солнце - температура, которую ощущает человек, с поправкой на солнечный нагрев. Характеристика знойности погоды. Зависит от высоты солнца над горизонтом, облачности и скорости ветра. Ночью, в пасмурную погоду, а также при ветре 12 м/с и более поправка равна нулю.
P - Атмосферное давление - приведенное к уровню моря атмосферное давление.
Po - Атмосферное давление - измеренное на уровне метеостанции атмосферное давление.
Tmin - Минимальная температура - минимум температуры воздуха на высоте 2 м над землей.
Tmax - Максимальная температура - максимум температуры воздуха на высоте 2 м над землей.
R - Количество осадков - Количество выпавших осадков за период времени, мм. При наведении курсора мыши на число - период времени, за который выпало указанное количество осадков.
R24 - Количество осадков - Количество выпавших осадков за 24 часа, мм.
S - Снежный покров - Высота снежного покрова, см. При наведении курсора мыши на число - состояние снежного покрова и степень покрытия местности в баллах.